Home > Weather > Koudougou > Past weeks

Flag for Burkina Faso Past Weather in Koudougou, Burkina Faso — Yesterday and Last 2 Weeks

Now
99 °F

Passing clouds.


Feels Like: 103 °F
Forecast: N/A
Wind: 3 mph from North

Location: Ouagadougou Airport

Current Time: May 31, 2016 at 4:22:34 PM

Latest Report: May 31, 2016 at 4:00 PM


Visibility: N/A

Pressure: 29.86 "Hg

Humidity: 35%

Dew Point: 66 °F

Location of KoudougouLocation

Past Weather in Koudougou — Graph

°F

Koudougou Temperature Yesterday

Maximum temperature yesterday: 97 °F (at 3:00 PM)
Minimum temperature yesterday: 79 °F (at 5:00 AM)
Average temperature yesterday: 86 °F

High & Low Weather Summary for the Past Weeks

 TemperatureHumidityPressure
High104 °F (May 22, 3:00 PM)100% (May 20, 9:00 AM)30.09 "Hg (May 20, 9:00 AM)
Low70 °F (May 28, 10:00 PM)23% (May 22, 5:00 PM)29.80 "Hg (May 17, 4:00 PM)
Average88 °F62%29.92 "Hg
* Reported May 16 2:00 PM — May 31 2:00 PM, Koudougou, Weather by CustomWeather, © 2016

Note: Actual official high and low records may vary slightly from our data, if they occured in-between our weather recording intervals... More about our weather records

Advertising

Koudougou Weather History for the Previous 24 Hours

Scroll right to see more
 ConditionsComfort  
Time TempWeatherWind HumidityBarometerVisibility
2:00 PM
Tue, May 31
97 °FPassing clouds.6 mph42%29.89 "HgN/A
1:00 PM97 °FPassing clouds.2 mph44%29.89 "HgN/A
12:00 PM95 °FPassing clouds.8 mph47%29.92 "HgN/A
11:00 AM93 °FSunny.2 mph49%29.95 "Hg10 mi
10:00 AM90 °FPassing clouds.9 mph55%29.95 "HgN/A
9:00 AM88 °FPassing clouds.9 mph59%29.95 "HgN/A
8:00 AM84 °FSunny.7 mph70%29.95 "Hg10 mi
7:00 AM81 °FSunny.5 mph70%29.92 "Hg10 mi
6:00 AM77 °FSunny.2 mph79%29.92 "Hg10 mi
5:00 AM77 °FClear.8 mph79%29.89 "Hg10 mi
4:00 AM79 °FClear.8 mph74%29.89 "Hg10 mi
3:00 AM79 °FClear.3 mph79%29.89 "Hg10 mi
2:00 AM79 °FClear.7 mph74%29.89 "Hg10 mi
1:00 AM79 °FClear.6 mph79%29.92 "Hg10 mi
12:00 AM81 °FClear.6 mph70%29.92 "Hg10 mi
11:00 PM
Mon, May 30
79 °FClear.1 mph79%29.95 "Hg10 mi
10:00 PM81 °FClear.3 mph70%29.95 "Hg10 mi
9:00 PM81 °FClear.8 mph70%29.92 "Hg10 mi
8:00 PM79 °FThunderstorms. Passing clouds.6 mph70%29.89 "HgN/A
7:00 PM79 °FThunderstorms. Passing clouds.24 mph65%29.95 "Hg4 mi
6:00 PM91 °FSandstorm.13 mph46%29.89 "Hg1 mi
5:00 PM97 °FPassing clouds.2 mph44%29.83 "HgN/A
4:00 PM95 °FPassing clouds.3 mph47%29.83 "HgN/A
Weather by CustomWeather, © 2016

See weather overviewHow to use our weather pages